Regional Weather Roundup
Issued by NWS

Home | Current Version | Previous Version | Graphics & Text | Print | Product List | Glossary On
Versions: 1 2 3 4 5 6 7 8 9 10 11 12 13 14 15 16 17 18 19 20 21 22 23 24 25 26 27 28 29 30 31 32 33 34 35 36 37 38 39 40 41 42 43 44 45 46 47 48 49 50
000
ASUS43 KDTX 160010
RWRMI
MICHIGAN HOURLY REGIONAL WEATHER ROUNDUP
NATIONAL WEATHER SERVICE DETROIT/PONTIAC MI
700 PM EST MON JAN 15 2018

NOTE: "FAIR" INDICATES FEW OR NO CLOUDS BELOW 12,000 FEET WITH NO
SIGNIFICANT WEATHER AND/OR OBSTRUCTION TO VISIBILITY.

MIZ047>049-052>055-059>063-066>070-074>076-081>083-160100-
SOUTHEAST LOWER MICHIGAN

CITY           SKY/WX    TMP DP  RH WIND       PRES   REMARKS
ADRIAN         LGT SNOW  20  17  88 CALM      30.24R FOG
6HR MIN TEMP:  19; 6HR MAX TEMP:  20; 6HR PCP: TRACE;

ALMA           LGT SNOW  17  15  93 NE6       30.26S WCI   8
6HR MIN TEMP:  16; 6HR MAX TEMP:  19;

ANN ARBOR      CLOUDY    19  16  88 CALM      30.24R
BAD AXE        LGT SNOW  18  15  89 SE3       30.28F
6HR MIN TEMP:  17; 6HR MAX TEMP:  18;

CARO           LGT SNOW  17  14  87 E5        30.27S WCI  10
DETROIT CITY   CLOUDY    20  17  88 CALM      30.27R
6HR MIN TEMP:  19; 6HR MAX TEMP:  21; 6HR PCP: TRACE;

DETROIT        FLURRIES  21  18  88 CALM      30.26R
6HR MIN TEMP:  20; 6HR MAX TEMP:  21; 6HR PCP:  0.02;

FLINT          CLOUDY    18  14  84 E8        30.25R WCI   8
6HR MIN TEMP:  17; 6HR MAX TEMP:  19; 6HR PCP:  0.02;

GROSSE ILE     LGT SNOW  23  20  89 S3        30.25R
6HR MIN TEMP:  20; 6HR MAX TEMP:  23;

HILLSDALE      LGT SNOW  19  16  86 CALM      30.19R
HOWELL         LGT SNOW  18  17  95 CALM      30.23R

CITY           SKY/WX    TMP DP  RH WIND       PRES   REMARKS
JACKSON        LGT SNOW  19  16  88 E3        30.22R FOG
6HR MIN TEMP:  18; 6HR MAX TEMP:  20; 6HR PCP: TRACE;

LAMBERTVILLE   LGT SNOW  22  19  89 CALM      30.25R
6HR MIN TEMP:  19; 6HR MAX TEMP:  22;

LANSING        LGT SNOW  17  15  92 E3        30.24R FOG
6HR MIN TEMP:  17; 6HR MAX TEMP:  20; 6HR PCP:  0.02;

LAPEER         FLURRIES  17  14  89 CALM      30.25S
6HR MIN TEMP:  17; 6HR MAX TEMP:  18;

MASON          LGT SNOW  20  14  80 CALM      30.23R
6HR MIN TEMP:  19; 6HR MAX TEMP:  21;

MONROE         LGT SNOW  22  19  88 SE3       30.25R
6HR MIN TEMP:  19; 6HR MAX TEMP:  22;

MT. CLEMENS    CLOUDY    20  20  99 E6        30.24S WCI  12
6HR MIN TEMP:  19; 6HR MAX TEMP:  20; 6HR PCP: TRACE;

PONTIAC        LGT SNOW  19  17  92 SE3       30.22R FOG
6HR MIN TEMP:  17; 6HR MAX TEMP:  19; 6HR PCP: TRACE;

PORT HOPE        N/A     20  17  88 SE10      30.28S WCI   9
6HR MIN TEMP:  19; 6HR MAX TEMP:  21; 6HR PCP:  0.06;

PORT HURON     LGT SNOW  19  16  86 E3        30.27S
TRI CITIES     LGT SNOW  17  15  92 E6        30.28R FOG     WCI   9
6HR MIN TEMP:  17; 6HR MAX TEMP:  18; 6HR PCP: TRACE;

MIDLAND        LGT SNOW  18  14  86 E6        30.27S WCI   9
6HR MIN TEMP:  18; 6HR MAX TEMP:  19;

TROY           FLURRIES  21  19  89 E3        30.27R
SAGINAW HB     LGT SNOW  18  14  86 E6        30.27S WCI   9
$$
MIZ043>046-050>051-056>058-064>065-071>073-077>080-160100-
SOUTHWEST LOWER MICHIGAN

CITY           SKY/WX    TMP DP  RH WIND       PRES   REMARKS
BATTLE CREEK   LGT SNOW  20  17  88 CALM      30.22R FOG
6HR MIN TEMP:  19; 6HR MAX TEMP:  21; 6HR PCP: TRACE;

BENTON HARBOR  LGT SNOW  22  17  81 SW13G23   30.23R WCI  10
6HR MIN TEMP:  22; 6HR MAX TEMP:  23; 6HR PCP:  0.01;

BIG RAPIDS     FLURRIES  16  10  79 E6        30.24R WCI   7
6HR MIN TEMP:  16; 6HR MAX TEMP:  18;

COLDWATER      LGT SNOW  21  19  93 SE3       30.21R
6HR MIN TEMP:  20; 6HR MAX TEMP:  22;

FREMONT        FLURRIES  18  11  75 E6        30.24R WCI   9
6HR MIN TEMP:  18; 6HR MAX TEMP:  20;

HOLLAND        LGT SNOW  20  15  81 E9        30.23R WCI   9
6HR MIN TEMP:  19; 6HR MAX TEMP:  21;

GRAND RAPIDS   LGT SNOW  19  15  84 E7        30.23R FOG     WCI  10
6HR MIN TEMP:  18; 6HR MAX TEMP:  20; 6HR PCP:  0.01;

IONIA          LGT SNOW  18  16  90 NE5       30.23R WCI  11
6HR MIN TEMP:  18; 6HR MAX TEMP:  20;

KALAMAZOO      LGT SNOW  21  17  84 E5        30.22R FOG     WCI  15
6HR MIN TEMP:  20; 6HR MAX TEMP:  22; 6HR PCP: TRACE;

LUDINGTON      FLURRIES  16  11  82 CALM      30.26R
6HR MIN TEMP:  15; 6HR MAX TEMP:  21;

MARSHALL       LGT SNOW  19  16  88 SE3       30.21R
6HR MIN TEMP:  18; 6HR MAX TEMP:  20;

MOUNT PLEASANT LGT SNOW  17  13  82 NE3       30.26R
6HR MIN TEMP:  17; 6HR MAX TEMP:  19;

MUSKEGON       LGT SNOW  19  13  77 E6        30.24R WCI  11
6HR MIN TEMP:  19; 6HR MAX TEMP:  20; 6HR PCP: TRACE;

SOUTH HAVEN    LGT SNOW  22  19  86 E5        30.22R WCI  16
$$
MIZ016>042-160100-
NORTHERN LOWER MICHIGAN

CITY           SKY/WX    TMP DP  RH WIND       PRES   REMARKS
ALPENA         LGT SNOW  20  18  92 E9        30.32R FOG     WCI   9
6HR MIN TEMP:  20; 6HR MAX TEMP:  21; 6HR PCP:  0.13;

BEAVER ISLAND  LGT SNOW  19  16  88 NE9G24    30.34R WCI   8
6HR MIN TEMP:  19; 6HR MAX TEMP:  22;

BELLAIRE       CLOUDY    18  17  95 CALM      30.31R
6HR MIN TEMP:  18; 6HR MAX TEMP:  20;

CADILLAC       FLURRIES  13  11  89 E5        30.22R WCI   6
CHARLEVOIX     CLOUDY    20  14  76 NE7       30.34R WCI  11
6HR MIN TEMP:  19; 6HR MAX TEMP:  21;

FRANKFORT      CLOUDY    19  15  84 CALM      30.29R
GAYLORD        LGT SNOW  15  13  91 NE3       30.25R FOG
6HR MIN TEMP:  14; 6HR MAX TEMP:  18; 6HR PCP:  0.02;

GRAYLING       LGT SNOW  13   9  85 E5        30.26S WCI   5
6HR MIN TEMP:  13; 6HR MAX TEMP:  18;

HARBOR SPRINGS CLOUDY    19  15  83 NE6       30.32R FOG     WCI  11
HOUGHTON LAKE  CLOUDY    13  10  88 E3        30.25R
6HR MIN TEMP:  13; 6HR MAX TEMP:  17; 6HR PCP:  0.05;

MANISTEE       FLURRIES  14  11  87 NE6       30.28R WCI   5
OSCODA         LGT SNOW  19  15  87 CALM      30.30R VSB 1
6HR MIN TEMP:  19; 6HR MAX TEMP:  20; 6HR PCP:  0.01;

PELLSTON       LGT SNOW  20  16  84 E8        30.33R FOG     WCI  10
6HR MIN TEMP:  19; 6HR MAX TEMP:  21; 6HR PCP: TRACE;

ROGERS CITY    LGT SNOW  21  18  89 E21G28    30.34R VSB 3/4 WCI   5
TRAVERSE CITY  FLURRIES  16  12  84 CALM      30.29R
6HR MIN TEMP:  16; 6HR MAX TEMP:  20; 6HR PCP: TRACE;

$$
MIZ007>008-015-160100-
EASTERN UPPER MICHIGAN

CITY           SKY/WX    TMP DP  RH WIND       PRES   REMARKS
KINROSS        FLURRIES  15  11  83 E15       30.38R WCI   0
6HR MIN TEMP:  15; 6HR MAX TEMP:  19;

MACKINAC ISLAN LGT SNOW  17  13  83 E20G33    30.35R WCI   1
6HR MIN TEMP:  17; 6HR MAX TEMP:  23;

NEWBERRY       CLOUDY    15  15  97 NE10      30.37R FOG     WCI   3
6HR MIN TEMP:  15; 6HR MAX TEMP:  19;

S. S. MARIE    CLOUDY    18  10  71 E9        30.39S WCI   7
6HR MIN TEMP:  18; 6HR MAX TEMP:  21; 6HR PCP: TRACE;

MUNISING         N/A     17  13  84 E8        30.38R WCI   7
6HR MIN TEMP:  15; 6HR MAX TEMP:  20;

$$
MIZ004>006-011>014-085-160100-
CENTRAL UPPER MICHIGAN

CITY           SKY/WX    TMP DP  RH WIND       PRES   REMARKS
MANISTIQUE     LGT SNOW  17  16  94 NE12G17   30.36R WCI   4
6HR MIN TEMP:  17; 6HR MAX TEMP:  19;

ESCANABA       FLURRIES  17  13  84 VRB7      30.35R WCI   8
6HR MIN TEMP:  17; 6HR MAX TEMP:  21; 6HR PCP: TRACE;

SAWYER-GWINN   FLURRIES  14  10  85 NE5       30.34R WCI   6
$$
MIZ001>003-009>011-084-160100-
WESTERN UPPER MICHIGAN

CITY           SKY/WX    TMP DP  RH WIND       PRES   REMARKS
IRON MOUNTAIN  LGT SNOW  18  13  80 NE7       30.31R WCI   9
6HR MIN TEMP:  17; 6HR MAX TEMP:  22; 6HR PCP: TRACE;

HOUGHTON       CLOUDY    19  11  70 E6        30.37R WCI  11
6HR MIN TEMP:  18; 6HR MAX TEMP:  22; 6HR PCP: TRACE;

COPPER HARBOR    N/A     23  20  88 SE14G22   30.42R WCI  11
6HR MIN TEMP:  21; 6HR MAX TEMP:  23; 6HR PCP:  0.10;

IRONWOOD       MOCLDY    10   6  84 CALM      30.35R
6HR MIN TEMP:  10; 6HR MAX TEMP:  21; 6HR PCP: TRACE;

$$

ABBREVIATIONS USED IN REMARKS
   TC - TEMPERATURE IN CELSIUS
  WCI - WIND CHILL INDEX
   HX - HEAT INDEX
  VSB - VISIBILITY





USA.gov is the U.S. government's official web portal to all federal, state and local government web resources and services.